Other Public Products
Issued by NWS Grand Forks, ND

Home | Current Version | Previous Version | Text Only | Print | Product List | Glossary Off
Versions: 1 2 3 4 5 6 7 8 9 10 11 12 13 14 15 16 17 18 19 20 21 22 23 24 25 26 27 28 29 30 31 32 33 34 35 36 37 38 39 40 41 42 43 44 45 46 47 48 49 50

000
FPUS83 KFGF 012310
OPUFGF
PRAIRIE TO PINES WEATHER ROUNDUP
NATIONAL WEATHER SERVICE EASTERN NORTH DAKOTA/GRAND FORKS ND
600 PM CDT SUN MAY 01 2016

 **SATELLITE DATA USED TO AUGMENT SKY COVER AT AUTOMATED STATIONS**
 *****  WEATHER ACROSS EASTERN NORTH DAKOTA  *****

CITY           SKY/WX    TMP DP  RH WIND       PRES   REMARKS
GRAND FORKS    SUNNY     67  28  23 N9        30.15F
GRAND FORKS AF SUNNY     65  25  22 VRB2      30.16F
GRAND CITY NWS NOT AVBL
BUXTON         NOT AVBL
DEVILS LAKE    SUNNY     63  24  22 N10       30.17F
FARGO          SUNNY     67  27  22 N9        30.15S
WAHPETON ARPT  CLEAR     63  27  25 N12       30.15F
$$

 *****  WEATHER ACROSS CENTRAL AND WESTERN NORTH DAKOTA  *****

CITY           SKY/WX    TMP DP  RH WIND       PRES   REMARKS
JAMESTOWN      SUNNY     62  27  26 NW6       30.16F
BISMARCK       SUNNY     63  27  25 CALM      30.20F
MINOT          SUNNY     70  22  16 SW3       30.17F
MINOT AFB      SUNNY     65  26  22 NW7       30.16F
GARRISON         N/A     63  23  21 SW10      30.18F
WILLISTON      SUNNY     68  25  19 NW6       30.18F
DICKINSON      SUNNY     62  27  26 VRB3      30.18F
HETTINGER      SUNNY     60  26  27 N5        30.21F
$$

 *****  OTHER OBSERVATIONS NORTHEAST NORTH DAKOTA  *****

CITY           SKY/WX    TMP DP  RH WIND       PRES   REMARKS
WALHALLA       FAIR      64  28  25 N7        30.15F
LANGDON        FAIR      66  25  20 CALM      30.16F
CAVALIER       FAIR      64  28  25 CALM      30.16F
GRAFTON        FAIR      64  27  24 N8        30.17F
CANDO          FAIR      64  23  20 NE6       30.18F
FORT TOTTEN      N/A     65  24  21 W5        29.95S
ROLLA          FAIR      64  21  19 NW5G16    30.17F
RUGBY          FAIR      63  25  23 NW5       30.17F
 ***** THE ABOVE OBSERVATIONS ARE NON NWS ARE NOT QUALITY
        CONTROLLED AND MAY MIS-REPORT RAIN FOR SNOW...
$$

 *****  OTHER OBSERVATIONS SOUTHEAST NORTH DAKOTA *****

CITY           SKY/WX    TMP DP  RH WIND       PRES   REMARKS
COOPERSTOWN    NOT AVBL
VALLEY CITY    FAIR      63  27  25 CALM      30.18F
OAKES            N/A    N/A N/A N/A MISG        N/A
GWINNER        FAIR      64  30  27 CALM      30.17S
SHEYENNE NWR     N/A     65  28  25 NE8       29.95S
BUFFALO        NOT AVBL
WYNDMERE         N/A     64  30  27 N6          N/A
 ***** THE ABOVE OBSERVATIONS ARE NON NWS ARE NOT QUALITY
       CONTROLLED AND MAY MIS-REPORT RAIN FOR SNOW...
$$

  *****  WEATHER ACROSS NORTHERN MINNESOTA  *****

CITY           SKY/WX    TMP DP  RH WIND       PRES   REMARKS
FLAG ISLAND    SUNNY     48  37  66 S7        30.15F
WARROAD        SUNNY     57  28  33 E8        30.18F
ROSEAU         SUNNY     63  32  31 E7        30.17S
HALLOCK        SUNNY     66  19  16 CALM      30.14F
THF RVR FALLS  SUNNY     63  27  25 CALM      30.17S
HALSTAD        NOT AVBL
FOSSTON        SUNNY     64  30  27 N7        30.16F
BAUDETTE       SUNNY     60  26  27 N10       30.16F
WASKISH        SUNNY     61  36  39 W8        30.15F
CROOKSTON      SUNNY     64  28  25 CALM      30.15F
$$
  *****  WEATHER ACROSS CENTRAL AND WEST MINNESOTA  *****

CITY           SKY/WX    TMP DP  RH WIND       PRES   REMARKS
BEMIDJI        SUNNY     60  30  32 N9        30.15S
PARK RAPIDS    SUNNY     63  27  25 N6        30.13F
WADENA         SUNNY     61  32  33 N5        30.14S
DETROIT LAKES  SUNNY     63  30  29 NW6       30.15F
MOORHEAD       SUNNY     64  28  25 N8        30.16S
FERGUS FALLS   SUNNY     63  32  31 NE5       30.12F
ELBOW LAKE     FAIR      60  32  34 NE8       30.15S
MORRIS MN      SUNNY     64  30  27 N9        30.13S
STAPLES        SUNNY     61  27  27 NE3       30.13F
WHEATON        SUNNY     64  34  32 N13       30.16F
$$
  *****  WEATHER ELSEWHERE ACROSS MINNESOTA  *****

CITY           SKY/WX    TMP DP  RH WIND       PRES   REMARKS
DULUTH         MOSUNNY   52  32  46 SE14      30.16S
INTRNTL FALLS  SUNNY     60  26  27 E6        30.16S
ELY            SUNNY     57  27  30 NE6       30.13F
CLOQUET        SUNNY     54  30  40 E7        30.16S
BRAINERD       SUNNY     61  29  29 NE5       30.13F
HIBBING        MOSUNNY   60  29  30 N6        30.13S
ALEXANDRIA     SUNNY     62  30  29 N7        30.14F
SAINT CLOUD    MOSUNNY   62  31  31 NE6       30.12S
MINNEAPOLIS    PTSUNNY   63  35  35 N10       30.10S
$$

  *****  WEATHER ACROSS SOUTH DAKOTA  *****

CITY           SKY/WX    TMP DP  RH WIND       PRES   REMARKS
SIOUX FALLS    MOSUNNY   58  36  43 N10       30.14F
BROOKINGS      SUNNY     58  31  35 NE13G20   30.14F
WATERTOWN      SUNNY     60  32  34 NE9       30.15F
HURON          SUNNY     61  32  33 NE8       30.17F
SISSETON         N/A     64  29  26 N13G20    30.15S
ABERDEEN       SUNNY     63  32  31 N10       30.18F
MITCHELL       SUNNY     59  36  42 N13       30.17F
PIERRE         SUNNY     60  35  39 W14       30.19F
MOBRIDGE       SUNNY     64  31  28 W8        30.17F
RAPID CITY     SUNNY     58  30  34 N14       30.22F
$$

  *****  SOME WEATHER IN NEARBY STATES *****

CITY           SKY/WX    TMP DP  RH WIND       PRES   REMARKS
GLASGOW MT     SUNNY     65  32  29 S7        30.20F
GREAT FALLS MT SUNNY     63  30  28 NW3       30.20F
CHEYENNE WY    PTSUNNY   38  22  52 N7        30.26S
SCOTTSBLUFF NE PTSUNNY   54  30  40 N14G21    30.24F
OMAHA NE       PTSUNNY   49  43  80 N8        30.11S
DES MOINES IA  CLOUDY    49  43  80 NE12G22   30.06S
DAVENPORT IA   HVY RAIN  49  47  93 N15       29.99S FOG
CHICAGO IL     CLOUDY    47  42  83 NE15      29.98F
EAU CLAIRE WI  PTSUNNY   62  31  31 NE8       30.05S
LA CROSSE WI   CLOUDY    59  34  39 E7        30.06R
$$

  *****  SOME NATIONAL WEATHER *****

CITY           SKY/WX    TMP DP  RH WIND       PRES   REMARKS
LA GUARDIA NY  CLOUDY    49  45  86 NE12      30.10F FOG
RALEIGH NC     CLOUDY    74  66  76 S10       29.99F
ATLANTA GA     CLOUDY    75  64  68 CALM      30.01S
NEW ORLEANS LA LGT RAIN  70  66  87 SE21      29.94F
OKLAHOMA CITY  CLOUDY    59  46  62 N18       30.07R
ALBUQUERQUE NM CLOUDY    47  29  49 E29G38    30.11R
SALT LAKE CITY PTSUNNY   64  25  22 E12       30.01F
LOS ANGELES CA MOSUNNY   66  54  65 W15       29.92S
BOISE ID       SUNNY     70  38  31 W8        30.04F
SEATTLE WA     SUNNY     77  44  30 N10       30.01F
$$

*** WEATHER ACROSS MANITOBA...SASKATCHEWAN AND ONTARIO ***
                ***ONTARIO***

CITY           SKY/WX    TMP DP  RH WIND       PRES   REMARKS
GERALDTON      CLOUDY    46  32  57 NE6       30.19F
THUNDER BAY    MOSUNNY   55  32  41 E12       30.16F
SIOUX LOOKOUT  MOSUNNY   59  30  33 N6        30.14F
TORONTO        DRIZZLE   46  45  93 NE12      30.01R
BIG TROUT LK   MOSUNNY   57  27  30 VRB2      30.11F
PICKLE LAKE    PTSUNNY   61  27  27 VRB5      30.11F
DRYDEN         SUNNY     61  27  27 E7        30.14F
KENORA         MOSUNNY   61  27  27 SW7       30.15F
$$
                *** MANITOBA***

CITY           SKY/WX    TMP DP  RH WIND       PRES   REMARKS
BRANDON        MOSUNNY   66  27  22 W10G18    30.13F
DAUPHIN        PTSUNNY   68  25  19 W14       30.07F
ISLAND LAKE    PTSUNNY   63  30  29 W5        30.08F
PILOT MOUND      N/A     64  21  19 W6          N/A
THE PAS        NOT AVBL
THOMPSON       NOT AVBL
WINNIPEG       MOSUNNY   66  30  26 W8G20     30.14F
LYNN LAKE      PTSUNNY   59  39  47 NW10G17   30.02R
CHURCHILL      MOSUNNY   52  37  58 S9        29.95F
$$
                ***SASKATCHEWAN***

CITY           SKY/WX    TMP DP  RH WIND       PRES   REMARKS
ESTEVAN        PTSUNNY   70  25  18 W9G18     30.14F
KINDERSLEY     MOSUNNY   70  30  23 W18       30.12F
LLOYDMINSTER   MOSUNNY   73  28  19 W14G22    30.05F
PRINCE ALBERT  PTSUNNY   73  28  19 NW12G18   30.01F
REGINA         PTSUNNY   68  30  24 W17G24    30.11F
YORKTON        CLOUDY    68  32  26 W17G25    30.06F
N. BATTLEFORD  SUNNY     73  27  17 W15G22    30.07F   C1F1C2F2C3F3C4F4C5F5C6F6C7F7C8F8C9F9CaFaCbFbCcFcCdFdCe!


USA.gov is the U.S. government's official web portal to all federal, state and local government web resources and services.